Home > Weather > Arendal > Past weeks

Flag for Norway Weather for the Past 2 Weeks in Arendal, Norway

Now
26 °F

Chilly.


Feels Like: 26 °F
Forecast: 20 / 30 °F
Wind: 2 mph from Northwest

Location: Torungen Fyr

Current Time: Feb 13, 2016 at 8:07:54 AM

Latest Report: Feb 13, 2016 at 7:00 AM


Visibility: N/A

Pressure: 29.47 "Hg

Humidity: 76%

Dew point: 19 °F

Location of ArendalLocation

Historic Weather in Arendal — Graph

°F

Arendal Temperature Yesterday

Maximum temperature yesterday: 35 °F (at 3:00 PM)
Minimum temperature yesterday: 28 °F (at 11:00 PM)
Average temperature yesterday: 31 °F

High & Low Weather Summary for the Past Weeks

 TemperatureHumidityPressure
High47 °F (Jan 29, 3:00 PM)98% (Feb 1, 3:00 PM)29.98 "Hg (Feb 1, 3:00 PM)
Low26 °F (Feb 13, 6:00 AM)38% (Feb 12, 3:00 PM)28.73 "Hg (Feb 8, 11:00 AM)
Average39 °F79%29.32 "Hg
* Reported Jan 29 6:00 AM — Feb 13 6:00 AM, Arendal, Weather by CustomWeather, © 2016

Note: Actual official high and low records may vary slightly from our data, if they occured in-between our weather recording intervals... More about our weather records

Advertising

Arendal Weather History for the Previous 24 Hours

 ConditionsComfort  
Time TempWeatherWind HumidityBarometerVisibility
6:00 AM
Sat, Feb 13
26 °FChilly.3 mph76%29.47 "HgN/A
5:00 AM26 °FChilly.5 mph77%29.47 "HgN/A
1:00 AM27 °FChilly.6 mph64%29.53 "HgN/A
11:00 PM
Fri, Feb 12
28 °FChilly.6 mph57%29.53 "HgN/A
10:00 PM28 °FChilly.6 mph59%29.53 "HgN/A
9:00 PM29 °FChilly.6 mph59%29.53 "HgN/A
8:00 PM29 °FChilly.3 mph58%29.54 "HgN/A
7:00 PM30 °FChilly.3 mph58%29.54 "HgN/A
6:00 PM33 °FChilly.5 mph42%29.54 "HgN/A
5:00 PM34 °FChilly.6 mph40%29.55 "HgN/A
4:00 PM35 °FChilly.6 mph39%29.56 "HgN/A
3:00 PM35 °FChilly.6 mph38%29.56 "HgN/A
2:00 PM35 °FChilly.6 mph42%29.57 "HgN/A
1:00 PM34 °FChilly.7 mph43%29.59 "HgN/A
12:00 PM33 °FChilly.7 mph48%29.61 "HgN/A
11:00 AM31 °FChilly.6 mph54%29.62 "HgN/A
10:00 AM29 °FChilly.8 mph60%29.63 "HgN/A
9:00 AM29 °FChilly.8 mph62%29.63 "HgN/A
8:00 AM28 °FChilly.8 mph64%29.64 "HgN/A
Weather by CustomWeather, © 2016

See weather overviewHow to use our weather pages